LPA3101 UWWW-UUBW

Flight info

Callsign LPA3101
Flight time N/A
Altitude 36000
Route REDMI T750 OKSUD T787 URAGO URAGO2B
Aircraft A319/M-SDE3FGHIRWY/LB1

Departure

Time 2026-04-30 18:13
Airport Kurumoch International Airport (UWWW)

Arrival

Time N/A
Airport Zhukovsky International Airport (UUBW)
Time Latitude Longitude Altitude Speed Heading
2026-04-30 17:39 53.51155 50.15876 447 ft 0 kts 332°
2026-04-30 18:04 53.51132 50.15897 447 ft 4 kts 336°
2026-04-30 18:05 53.51076 50.15903 447 ft 0 kts 62°
2026-04-30 18:08 53.51076 50.15904 447 ft 0 kts 62°
2026-04-30 18:09 53.51093 50.16346 447 ft 12 kts 122°
2026-04-30 18:10 53.50841 50.17016 446 ft 20 kts 139°
2026-04-30 18:11 53.50144 50.17445 447 ft 30 kts 160°
2026-04-30 18:11 53.49576 50.17786 447 ft 27 kts 160°
2026-04-30 18:12 53.49361 50.18315 437 ft 25 kts 14°
2026-04-30 18:13 53.49985 50.17964 440 ft 104 kts 340°
2026-04-30 18:13 53.53141 50.16068 1418 ft 174 kts 341°
2026-04-30 18:14 53.55445 50.14696 2380 ft 188 kts 342°
2026-04-30 18:15 53.59815 50.12070 3122 ft 252 kts 338°
2026-04-30 18:15 53.63018 50.04903 4980 ft 267 kts 300°
2026-04-30 18:16 53.64813 49.99376 6213 ft 272 kts 299°
2026-04-30 18:16 53.66643 49.93742 7417 ft 276 kts 299°
2026-04-30 18:17 53.67567 49.90900 8015 ft 278 kts 299°
2026-04-30 18:17 53.68503 49.88032 8588 ft 280 kts 299°
2026-04-30 18:17 53.70388 49.82250 9705 ft 283 kts 299°
2026-04-30 18:18 53.71337 49.79334 10231 ft 285 kts 298°
2026-04-30 18:18 53.72306 49.76357 10356 ft 301 kts 297°
2026-04-30 18:18 53.73335 49.73190 10496 ft 314 kts 297°
2026-04-30 18:18 53.74393 49.69924 10791 ft 319 kts 297°
2026-04-30 18:19 53.75463 49.66620 11156 ft 322 kts 297°
2026-04-30 18:19 53.76541 49.63288 11539 ft 324 kts 296°